| time (UTC) | temp F | wind direction | speed MPH | gust MPH | rain 1hr in | rain 24hr in | rain mn in | humidity % | barometer mb |
| 20260510215104 | 91 | 260 | 4.0 | 10.0 | 0.00 | 0.00 | 0.00 | 22 | 1012.0 |
| 20260510214604 | 92 | 288 | 3.0 | 8.0 | 0.00 | 0.00 | 0.00 | 23 | 1011.9 |
| 20260510213604 | 92 | 185 | 1.0 | 8.0 | 0.00 | 0.00 | 0.00 | 24 | 1012.0 |
| 20260510213103 | 92 | 298 | 4.0 | 8.0 | 0.00 | 0.00 | 0.00 | 23 | 1012.0 |
| 20260510212604 | 91 | 284 | 3.0 | 8.0 | 0.00 | 0.00 | 0.00 | 24 | 1012.0 |
| 20260510212106 | 91 | 305 | 4.0 | 9.0 | 0.00 | 0.00 | 0.00 | 23 | 1012.0 |
| 20260510211604 | 91 | 318 | 5.0 | 9.0 | 0.00 | 0.00 | 0.00 | 23 | 1012.1 |
| 20260510211104 | 91 | 290 | 3.0 | 12.0 | 0.00 | 0.00 | 0.00 | 23 | 1012.1 |
| 20260510210605 | 90 | 248 | 5.0 | 12.0 | 0.00 | 0.00 | 0.00 | 23 | 1012.2 |
| 20260510210104 | 90 | 268 | 5.0 | 10.0 | 0.00 | 0.00 | 0.00 | 24 | 1012.2 |
| 20260510205605 | 90 | 288 | 5.0 | 10.0 | 0.00 | 0.00 | 0.00 | 23 | 1012.2 |
| 20260510205104 | 90 | 263 | 5.0 | 9.0 | 0.00 | 0.00 | 0.00 | 23 | 1012.2 |
| 20260510204605 | 90 | 255 | 5.0 | 9.0 | 0.00 | 0.00 | 0.00 | 24 | 1012.3 |
| 20260510204103 | 90 | 266 | 5.0 | 9.0 | 0.00 | 0.00 | 0.00 | 24 | 1012.3 |
| 20260510203604 | 90 | 268 | 4.0 | 10.0 | 0.00 | 0.00 | 0.00 | 23 | 1012.4 |
| 20260510203104 | 89 | 264 | 5.0 | 10.0 | 0.00 | 0.00 | 0.00 | 24 | 1012.3 |
| 20260510202604 | 89 | 284 | 4.0 | 10.0 | 0.00 | 0.00 | 0.00 | 23 | 1012.4 |
| 20260510202106 | 89 | 318 | 3.0 | 10.0 | 0.00 | 0.00 | 0.00 | 23 | 1012.5 |
| 20260510201605 | 89 | 263 | 6.0 | 9.0 | 0.00 | 0.00 | 0.00 | 24 | 1012.5 |
| 20260510201104 | 89 | 269 | 3.0 | 9.0 | 0.00 | 0.00 | 0.00 | 24 | 1012.5 |
| 20260510200604 | 88 | 254 | 5.0 | 9.0 | 0.00 | 0.00 | 0.00 | 23 | 1012.5 |
| 20260510200105 | 88 | 291 | 6.0 | 8.0 | 0.00 | 0.00 | 0.00 | 23 | 1012.5 |
| 20260510195603 | 88 | 340 | 3.0 | 8.0 | 0.00 | 0.00 | 0.00 | 24 | 1012.5 |
| 20260510195104 | 88 | 311 | 5.0 | 8.0 | 0.00 | 0.00 | 0.00 | 24 | 1012.5 |
| 20260510194604 | 87 | 300 | 4.0 | 9.0 | 0.00 | 0.00 | 0.00 | 24 | 1012.5 |
| 20260510194104 | 87 | 300 | 5.0 | 9.0 | 0.00 | 0.00 | 0.00 | 24 | 1012.5 |
| 20260510193604 | 87 | 314 | 5.0 | 9.0 | 0.00 | 0.00 | 0.00 | 26 | 1012.5 |
| 20260510192604 | 87 | 266 | 6.0 | 8.0 | 0.00 | 0.00 | 0.00 | 25 | 1012.5 |
| 20260510192104 | 87 | 246 | 3.0 | 7.0 | 0.00 | 0.00 | 0.00 | 25 | 1012.5 |
| 20260510191605 | 86 | 309 | 4.0 | 7.0 | 0.00 | 0.00 | 0.00 | 26 | 1012.6 |
| 20260510191104 | 86 | 301 | 3.0 | 6.0 | 0.00 | 0.00 | 0.00 | 25 | 1012.6 |
| 20260510190603 | 86 | 272 | 2.0 | 7.0 | 0.00 | 0.00 | 0.00 | 26 | 1012.6 |
| 20260510190104 | 85 | 281 | 2.0 | 7.0 | 0.00 | 0.00 | 0.00 | 26 | 1012.7 |
| 20260510185604 | 85 | 316 | 3.0 | 7.0 | 0.00 | 0.00 | 0.00 | 26 | 1012.7 |
| 20260510184104 | 84 | 342 | 3.0 | 7.0 | 0.00 | 0.00 | 0.00 | 29 | 1012.7 |
| 20260510183604 | 83 | 299 | 5.0 | 9.0 | 0.00 | 0.00 | 0.00 | 28 | 1012.7 |
| 20260510182604 | 82 | 291 | 5.0 | 8.0 | 0.00 | 0.00 | 0.00 | 28 | 1012.7 |
| 20260510182107 | 82 | 274 | 5.0 | 7.0 | 0.00 | 0.00 | 0.00 | 28 | 1012.7 |
| 20260510181604 | 82 | 306 | 4.0 | 7.0 | 0.00 | 0.00 | 0.00 | 28 | 1012.7 |
| 20260510181104 | 82 | 279 | 5.0 | 7.0 | 0.00 | 0.00 | 0.00 | 28 | 1012.6 |
| 20260510175604 | 81 | 322 | 4.0 | 8.0 | 0.00 | 0.00 | 0.00 | 30 | 1012.5 |
| 20260510174604 | 80 | 295 | 2.0 | 7.0 | 0.00 | 0.00 | 0.00 | 30 | 1012.3 |
| 20260510174104 | 80 | 289 | 5.0 | 7.0 | 0.00 | 0.00 | 0.00 | 29 | 1012.2 |
| 20260510173604 | 80 | 293 | 3.0 | 6.0 | 0.00 | 0.00 | 0.00 | 28 | 1012.2 |
| 20260510173104 | 79 | 284 | 3.0 | 5.0 | 0.00 | 0.00 | 0.00 | 29 | 1012.2 |
| 20260510172604 | 79 | 289 | 2.0 | 3.0 | 0.00 | 0.00 | 0.00 | 29 | 1012.2 |
| 20260510172104 | 78 | 280 | 2.0 | 5.0 | 0.00 | 0.00 | 0.00 | 29 | 1012.2 |
| 20260510171604 | 78 | 267 | 2.0 | 5.0 | 0.00 | 0.00 | 0.00 | 29 | 1012.3 |
| 20260510171107 | 77 | 267 | 3.0 | 3.0 | 0.00 | 0.00 | 0.00 | 29 | 1012.3 |
| 20260510170604 | 77 | 266 | 2.0 | 3.0 | 0.00 | 0.00 | 0.00 | 32 | 1012.3 |
| 20260510170104 | 76 | 265 | 3.0 | 5.0 | 0.00 | 0.00 | 0.00 | 30 | 1012.3 |
| 20260510165604 | 75 | 263 | 1.0 | 5.0 | 0.00 | 0.00 | 0.00 | 32 | 1012.3 |
| 20260510165104 | 75 | 262 | 1.0 | 5.0 | 0.00 | 0.00 | 0.00 | 31 | 1012.3 |
| 20260510164604 | 75 | 284 | 2.0 | 3.0 | 0.00 | 0.00 | 0.00 | 33 | 1012.3 |
| 20260510164104 | 74 | 240 | 2.0 | 3.0 | 0.00 | 0.00 | 0.00 | 33 | 1012.3 |
| 20260510163604 | 73 | 255 | 2.0 | 3.0 | 0.00 | 0.00 | 0.00 | 34 | 1012.2 |
| 20260510163106 | 73 | 332 | 2.0 | 3.0 | 0.00 | 0.00 | 0.00 | 35 | 1012.2 |
| 20260510162604 | 72 | 221 | 2.0 | 3.0 | 0.00 | 0.00 | 0.00 | 37 | 1012.2 |
| 20260510162106 | 72 | 220 | 2.0 | 3.0 | 0.00 | 0.00 | 0.00 | 36 | 1012.2 |
| 20260510161604 | 71 | 314 | 3.0 | 5.0 | 0.00 | 0.00 | 0.00 | 36 | 1012.2 |
| 20260510161105 | 71 | 229 | 3.0 | 5.0 | 0.00 | 0.00 | 0.00 | 39 | 1012.2 |
| 20260510160604 | 71 | 98 | 2.0 | 3.0 | 0.00 | 0.00 | 0.00 | 38 | 1012.2 |
| 20260510160105 | 71 | 98 | 2.0 | 3.0 | 0.00 | 0.00 | 0.00 | 39 | 1012.3 |
| 20260510155605 | 70 | 98 | 0.0 | 2.0 | 0.00 | 0.00 | 0.00 | 39 | 1012.3 |
| 20260510155104 | 70 | 98 | 0.0 | 2.0 | 0.00 | 0.00 | 0.00 | 41 | 1012.3 |
| 20260510154604 | 69 | 98 | 0.0 | 3.0 | 0.00 | 0.00 | 0.00 | 42 | 1012.3 |
| 20260510153107 | 68 | 98 | 1.0 | 3.0 | 0.00 | 0.00 | 0.00 | 41 | 1012.3 |
| 20260510152104 | 67 | 98 | 2.0 | 3.0 | 0.00 | 0.00 | 0.00 | 40 | 1012.3 |
| 20260510150603 | 68 | 95 | 0.0 | 0.0 | 0.00 | 0.00 | 0.00 | 41 | 1012.2 |
| 20260510150104 | 67 | 95 | 0.0 | 0.0 | 0.00 | 0.00 | 0.00 | 41 | 1012.2 |
| 20260510145604 | 66 | 95 | 0.0 | 0.0 | 0.00 | 0.00 | 0.00 | 41 | 1012.3 |
| 20260510145104 | 66 | 65 | 0.0 | 0.0 | 0.00 | 0.00 | 0.00 | 40 | 1012.2 |
| 20260510144605 | 66 | 65 | 0.0 | 0.0 | 0.00 | 0.00 | 0.00 | 43 | 1012.2 |
| 20260510144104 | 66 | 65 | 0.0 | 0.0 | 0.00 | 0.00 | 0.00 | 42 | 1012.2 |
| 20260510143604 | 65 | 65 | 0.0 | 0.0 | 0.00 | 0.00 | 0.00 | 41 | 1012.3 |
| 20260510143105 | 64 | 65 | 0.0 | 0.0 | 0.00 | 0.00 | 0.00 | 43 | 1012.2 |
| 20260510142604 | 63 | 65 | 0.0 | 0.0 | 0.00 | 0.00 | 0.00 | 41 | 1012.3 |
| 20260510142106 | 63 | 65 | 0.0 | 0.0 | 0.00 | 0.00 | 0.00 | 42 | 1012.3 |
| 20260510141604 | 62 | 65 | 0.0 | 0.0 | 0.00 | 0.00 | 0.00 | 43 | 1012.3 |
| 20260510141104 | 62 | 65 | 0.0 | 0.0 | 0.00 | 0.00 | 0.00 | 42 | 1012.3 |
| 20260510140604 | 62 | 65 | 0.0 | 0.0 | 0.00 | 0.00 | 0.00 | 40 | 1012.3 |
| 20260510140104 | 62 | 65 | 0.0 | 1.0 | 0.00 | 0.00 | 0.00 | 40 | 1012.4 |
| 20260510135604 | 61 | 65 | 0.0 | 1.0 | 0.00 | 0.00 | 0.00 | 37 | 1012.3 |
| 20260510135104 | 61 | 65 | 0.0 | 0.0 | 0.00 | 0.00 | 0.00 | 36 | 1012.3 |
| 20260510134604 | 61 | 62 | 0.0 | 1.0 | 0.00 | 0.00 | 0.00 | 39 | 1012.1 |
| 20260510134104 | 61 | 65 | 0.0 | 1.0 | 0.00 | 0.00 | 0.00 | 38 | 1012.0 |
| 20260510133603 | 60 | 65 | 0.0 | 0.0 | 0.00 | 0.00 | 0.00 | 41 | 1012.0 |
| 20260510133104 | 60 | 65 | 0.0 | 0.0 | 0.00 | 0.00 | 0.00 | 41 | 1011.8 |
| 20260510132604 | 60 | 65 | 0.0 | 1.0 | 0.00 | 0.00 | 0.00 | 43 | 1011.8 |
| 20260510131604 | 61 | 65 | 0.0 | 1.0 | 0.00 | 0.00 | 0.00 | 44 | 1011.7 |
| 20260510131104 | 61 | 64 | 0.0 | 0.0 | 0.00 | 0.00 | 0.00 | 43 | 1011.5 |
| 20260510130605 | 61 | 64 | 0.0 | 0.0 | 0.00 | 0.00 | 0.00 | 43 | 1011.4 |
| 20260510130104 | 61 | 64 | 0.0 | 0.0 | 0.00 | 0.00 | 0.00 | 41 | 1011.3 |
| 20260510125604 | 61 | 65 | 0.0 | 1.0 | 0.00 | 0.00 | 0.00 | 40 | 1011.4 |
| 20260510124604 | 61 | 64 | 0.0 | 1.0 | 0.00 | 0.00 | 0.00 | 39 | 1011.3 |
| 20260510124104 | 61 | 61 | 0.0 | 1.0 | 0.00 | 0.00 | 0.00 | 41 | 1011.3 |
| 20260510123604 | 60 | 63 | 0.0 | 1.0 | 0.00 | 0.00 | 0.00 | 43 | 1011.3 |
| 20260510122604 | 60 | 63 | 0.0 | 0.0 | 0.00 | 0.00 | 0.00 | 46 | 1011.3 |
| 20260510122106 | 60 | 63 | 0.0 | 0.0 | 0.00 | 0.00 | 0.00 | 45 | 1011.3 |
| 20260510121104 | 61 | 63 | 0.0 | 1.0 | 0.00 | 0.00 | 0.00 | 45 | 1011.4 |
| 20260510120604 | 60 | 63 | 0.0 | 1.0 | 0.00 | 0.00 | 0.00 | 46 | 1011.3 |
| 20260510120104 | 60 | 63 | 0.0 | 1.0 | 0.00 | 0.00 | 0.00 | 45 | 1011.3 |
| 20260510115604 | 60 | 63 | 0.0 | 1.0 | 0.00 | 0.00 | 0.00 | 46 | 1011.3 |
| 20260510115104 | 60 | 63 | 0.0 | 1.0 | 0.00 | 0.00 | 0.00 | 46 | 1011.4 |
| 20260510114604 | 60 | 63 | 0.0 | 0.0 | 0.00 | 0.00 | 0.00 | 47 | 1011.4 |
| 20260510114104 | 60 | 63 | 0.0 | 0.0 | 0.00 | 0.00 | 0.00 | 45 | 1011.3 |
| 20260510113604 | 60 | 63 | 0.0 | 1.0 | 0.00 | 0.00 | 0.00 | 48 | 1011.4 |
| 20260510113104 | 61 | 63 | 0.0 | 1.0 | 0.00 | 0.00 | 0.00 | 49 | 1011.4 |
| 20260510112604 | 61 | 63 | 0.0 | 1.0 | 0.00 | 0.00 | 0.00 | 47 | 1011.5 |
| 20260510112107 | 61 | 63 | 0.0 | 2.0 | 0.00 | 0.00 | 0.00 | 46 | 1011.4 |
| 20260510111604 | 61 | 63 | 1.0 | 2.0 | 0.00 | 0.00 | 0.00 | 45 | 1011.4 |
| 20260510111104 | 61 | 41 | 0.0 | 1.0 | 0.00 | 0.00 | 0.00 | 50 | 1011.5 |
| 20260510110604 | 61 | 40 | 0.0 | 1.0 | 0.00 | 0.00 | 0.00 | 50 | 1011.6 |
| 20260510110104 | 61 | 40 | 0.0 | 2.0 | 0.00 | 0.00 | 0.00 | 51 | 1011.7 |
| 20260510105604 | 60 | 40 | 0.0 | 2.0 | 0.00 | 0.00 | 0.00 | 51 | 1011.8 |
| 20260510105105 | 61 | 34 | 0.0 | 1.0 | 0.00 | 0.00 | 0.00 | 51 | 1011.7 |
| 20260510104604 | 61 | 34 | 0.0 | 1.0 | 0.00 | 0.00 | 0.00 | 50 | 1011.7 |
| 20260510104105 | 62 | 33 | 0.0 | 2.0 | 0.00 | 0.00 | 0.00 | 48 | 1011.7 |
| 20260510103604 | 62 | 33 | 1.0 | 2.0 | 0.00 | 0.00 | 0.00 | 46 | 1011.7 |
| 20260510102604 | 62 | 22 | 0.0 | 1.0 | 0.00 | 0.00 | 0.00 | 46 | 1011.7 |
| 20260510102106 | 62 | 22 | 0.0 | 0.0 | 0.00 | 0.00 | 0.00 | 47 | 1011.7 |
| 20260510101604 | 62 | 22 | 0.0 | 1.0 | 0.00 | 0.00 | 0.00 | 50 | 1011.7 |
| 20260510101104 | 62 | 22 | 0.0 | 1.0 | 0.00 | 0.00 | 0.00 | 50 | 1011.7 |
| 20260510100604 | 62 | 22 | 0.0 | 1.0 | 0.00 | 0.00 | 0.00 | 49 | 1011.7 |
| 20260510100104 | 62 | 22 | 0.0 | 0.0 | 0.00 | 0.00 | 0.00 | 49 | 1011.9 |
| 20260510095604 | 62 | 22 | 0.0 | 1.0 | 0.00 | 0.00 | 0.00 | 48 | 1011.9 |
| 20260510095104 | 62 | 22 | 0.0 | 1.0 | 0.00 | 0.00 | 0.00 | 48 | 1011.9 |
| 20260510094604 | 62 | 22 | 0.0 | 1.0 | 0.00 | 0.00 | 0.00 | 49 | 1011.9 |
| 20260510094104 | 61 | 22 | 0.0 | 1.0 | 0.00 | 0.00 | 0.00 | 51 | 1011.8 |
| 20260510093604 | 61 | 22 | 0.0 | 1.0 | 0.00 | 0.00 | 0.00 | 51 | 1011.9 |
| 20260510093104 | 61 | 22 | 0.0 | 1.0 | 0.00 | 0.00 | 0.00 | 50 | 1011.9 |
| 20260510092604 | 62 | 22 | 0.0 | 1.0 | 0.00 | 0.00 | 0.00 | 50 | 1011.9 |
| 20260510092104 | 61 | 22 | 0.0 | 1.0 | 0.00 | 0.00 | 0.00 | 50 | 1011.9 |
| 20260510091604 | 62 | 22 | 0.0 | 1.0 | 0.00 | 0.00 | 0.00 | 51 | 1011.9 |
| 20260510091104 | 62 | 22 | 0.0 | 1.0 | 0.00 | 0.00 | 0.00 | 51 | 1012.0 |
| 20260510084604 | 62 | 21 | 0.0 | 1.0 | 0.00 | 0.00 | 0.00 | 49 | 1012.0 |
| 20260510084104 | 62 | 21 | 0.0 | 1.0 | 0.00 | 0.00 | 0.00 | 49 | 1012.1 |
| 20260510083604 | 62 | 20 | 0.0 | 1.0 | 0.00 | 0.00 | 0.00 | 50 | 1012.1 |
| 20260510083106 | 62 | 19 | 0.0 | 1.0 | 0.00 | 0.00 | 0.00 | 50 | 1012.2 |
| 20260510082604 | 63 | 19 | 0.0 | 1.0 | 0.00 | 0.00 | 0.00 | 50 | 1012.3 |
| 20260510082107 | 63 | 19 | 0.0 | 1.0 | 0.00 | 0.00 | 0.00 | 49 | 1012.4 |
| 20260510081104 | 63 | 19 | 0.0 | 1.0 | 0.00 | 0.00 | 0.00 | 49 | 1012.4 |
| 20260510080105 | 63 | 19 | 0.0 | 1.0 | 0.00 | 0.00 | 0.00 | 49 | 1012.4 |
| 20260510075604 | 63 | 19 | 0.0 | 1.0 | 0.00 | 0.00 | 0.00 | 49 | 1012.5 |
| 20260510074605 | 63 | 19 | 0.0 | 1.0 | 0.00 | 0.00 | 0.00 | 49 | 1012.5 |
| 20260510074104 | 63 | 19 | 0.0 | 1.0 | 0.00 | 0.00 | 0.00 | 49 | 1012.6 |
| 20260510073604 | 63 | 19 | 0.0 | 1.0 | 0.00 | 0.00 | 0.00 | 49 | 1012.6 |
| 20260510073104 | 63 | 18 | 0.0 | 1.0 | 0.00 | 0.00 | 0.00 | 48 | 1012.8 |
| 20260510072107 | 63 | 18 | 0.0 | 1.0 | 0.00 | 0.00 | 0.00 | 48 | 1012.8 |
| 20260510071605 | 63 | 18 | 0.0 | 1.0 | 0.00 | 0.00 | 0.00 | 48 | 1012.9 |
| 20260510071105 | 63 | 18 | 0.0 | 1.0 | 0.00 | 0.00 | 0.00 | 48 | 1012.9 |
| 20260510070604 | 63 | 16 | 0.0 | 1.0 | 0.00 | 0.00 | 0.00 | 48 | 1012.9 |
| 20260510070104 | 63 | 16 | 0.0 | 1.0 | 0.00 | 0.00 | 0.00 | 48 | 1012.9 |
| 20260510065604 | 63 | 16 | 0.0 | 1.0 | 0.00 | 0.00 | 0.00 | 47 | 1013.0 |
| 20260510065104 | 63 | 15 | 0.0 | 1.0 | 0.00 | 0.00 | 0.00 | 47 | 1013.0 |
| 20260510064605 | 63 | 15 | 0.0 | 1.0 | 0.00 | 0.00 | 0.00 | 47 | 1013.0 |
| 20260510063604 | 64 | 15 | 0.0 | 1.0 | 0.00 | 0.00 | 0.00 | 47 | 1013.0 |
| 20260510063104 | 64 | 15 | 0.0 | 1.0 | 0.00 | 0.00 | 0.00 | 47 | 1012.9 |
| 20260510062604 | 64 | 15 | 0.0 | 1.0 | 0.00 | 0.00 | 0.00 | 47 | 1012.9 |
| 20260510061103 | 64 | 14 | 0.0 | 1.0 | 0.00 | 0.00 | 0.00 | 47 | 1013.0 |
| 20260510060104 | 65 | 14 | 0.0 | 1.0 | 0.00 | 0.00 | 0.00 | 47 | 1013.0 |
| 20260510055604 | 65 | 14 | 0.0 | 1.0 | 0.00 | 0.00 | 0.00 | 46 | 1013.0 |
| 20260510055104 | 65 | 14 | 0.0 | 1.0 | 0.00 | 0.00 | 0.00 | 46 | 1013.0 |
| 20260510054604 | 66 | 14 | 0.0 | 1.0 | 0.00 | 0.00 | 0.00 | 45 | 1012.9 |
| 20260510054104 | 66 | 14 | 0.0 | 0.0 | 0.00 | 0.00 | 0.00 | 45 | 1012.9 |
| 20260510053604 | 67 | 14 | 0.0 | 0.0 | 0.00 | 0.00 | 0.00 | 44 | 1012.8 |
| 20260510053104 | 67 | 14 | 0.0 | 1.0 | 0.00 | 0.00 | 0.00 | 43 | 1012.8 |
| 20260510052106 | 68 | 14 | 0.0 | 2.0 | 0.00 | 0.00 | 0.00 | 42 | 1012.8 |
| 20260510051604 | 68 | 8 | 0.0 | 1.0 | 0.00 | 0.00 | 0.00 | 41 | 1012.9 |
| 20260510051104 | 68 | 0 | 0.0 | 1.0 | 0.00 | 0.00 | 0.00 | 40 | 1012.9 |
| 20260510050604 | 68 | 0 | 0.0 | 1.0 | 0.00 | 0.00 | 0.00 | 39 | 1012.8 |
| 20260510050104 | 68 | 0 | 0.0 | 1.0 | 0.00 | 0.00 | 0.00 | 40 | 1012.9 |
| 20260510045604 | 68 | 0 | 1.0 | 1.0 | 0.00 | 0.00 | 0.00 | 39 | 1012.8 |
| 20260510045104 | 69 | 355 | 0.0 | 1.0 | 0.00 | 0.00 | 0.00 | 39 | 1012.9 |
| 20260510044104 | 69 | 355 | 0.0 | 1.0 | 0.00 | 0.00 | 0.00 | 39 | 1012.7 |
| 20260510043604 | 70 | 355 | 0.0 | 1.0 | 0.00 | 0.00 | 0.00 | 37 | 1012.7 |
| 20260510042604 | 70 | 350 | 1.0 | 2.0 | 0.00 | 0.00 | 0.00 | 36 | 1012.7 |
| 20260510042105 | 70 | 322 | 1.0 | 1.0 | 0.00 | 0.00 | 0.00 | 35 | 1012.6 |
| 20260510041604 | 71 | 310 | 0.0 | 1.0 | 0.00 | 0.00 | 0.00 | 35 | 1012.5 |
| 20260510041104 | 71 | 302 | 0.0 | 0.0 | 0.00 | 0.00 | 0.00 | 34 | 1012.5 |
| 20260510040605 | 71 | 302 | 0.0 | 1.0 | 0.00 | 0.00 | 0.00 | 34 | 1012.4 |
| 20260510035606 | 71 | 302 | 0.0 | 1.0 | 0.00 | 0.00 | 0.00 | 34 | 1012.4 |
| 20260510035103 | 71 | 300 | 0.0 | 1.0 | 0.00 | 0.00 | 0.00 | 34 | 1012.3 |
| 20260510034604 | 71 | 299 | 0.0 | 1.0 | 0.00 | 0.00 | 0.00 | 37 | 1012.3 |
| 20260510034104 | 71 | 299 | 0.0 | 0.0 | 0.00 | 0.00 | 0.00 | 37 | 1012.3 |
| 20260510033604 | 72 | 299 | 0.0 | 0.0 | 0.00 | 0.00 | 0.00 | 37 | 1012.3 |
| 20260510032604 | 72 | 299 | 0.0 | 2.0 | 0.00 | 0.00 | 0.00 | 36 | 1012.2 |
| 20260510032104 | 72 | 299 | 0.0 | 2.0 | 0.00 | 0.00 | 0.00 | 35 | 1012.2 |
| 20260510031106 | 73 | 308 | 1.0 | 3.0 | 0.00 | 0.00 | 0.00 | 35 | 1011.9 |
| 20260510030604 | 73 | 310 | 1.0 | 3.0 | 0.00 | 0.00 | 0.00 | 34 | 1011.8 |
| 20260510025604 | 73 | 316 | 2.0 | 6.0 | 0.00 | 0.00 | 0.00 | 35 | 1011.7 |
| 20260510025104 | 74 | 322 | 2.0 | 6.0 | 0.00 | 0.00 | 0.00 | 35 | 1011.7 |
| 20260510024604 | 74 | 313 | 3.0 | 6.0 | 0.00 | 0.00 | 0.00 | 34 | 1011.7 |
| 20260510023604 | 75 | 306 | 3.0 | 6.0 | 0.00 | 0.00 | 0.00 | 33 | 1011.6 |
| 20260510023105 | 76 | 305 | 3.0 | 6.0 | 0.00 | 0.00 | 0.00 | 33 | 1011.6 |
| 20260510022605 | 76 | 299 | 3.0 | 6.0 | 0.00 | 0.00 | 0.00 | 33 | 1011.6 |
| 20260510022106 | 77 | 293 | 4.0 | 6.0 | 0.00 | 0.00 | 0.00 | 32 | 1011.6 |
| 20260510021604 | 78 | 305 | 4.0 | 6.0 | 0.00 | 0.00 | 0.00 | 32 | 1011.5 |
| 20260510021104 | 78 | 305 | 3.0 | 6.0 | 0.00 | 0.00 | 0.00 | 32 | 1011.4 |
| 20260510020605 | 78 | 289 | 3.0 | 6.0 | 0.00 | 0.00 | 0.00 | 32 | 1011.3 |
| 20260510020104 | 79 | 297 | 4.0 | 7.0 | 0.00 | 0.00 | 0.00 | 32 | 1011.3 |
| 20260510015604 | 79 | 316 | 5.0 | 8.0 | 0.00 | 0.00 | 0.00 | 31 | 1011.2 |
| 20260510015104 | 79 | 283 | 5.0 | 8.0 | 0.00 | 0.00 | 0.00 | 32 | 1011.2 |
| 20260510014604 | 80 | 289 | 5.0 | 7.0 | 0.00 | 0.00 | 0.00 | 31 | 1011.1 |
| 20260510014104 | 81 | 297 | 5.0 | 7.0 | 0.00 | 0.00 | 0.00 | 31 | 1011.1 |
| 20260510013104 | 81 | 290 | 5.0 | 8.0 | 0.00 | 0.00 | 0.00 | 31 | 1011.1 |
| 20260510012604 | 82 | 304 | 5.0 | 8.0 | 0.00 | 0.00 | 0.00 | 31 | 1011.1 |
| 20260510011603 | 83 | 284 | 6.0 | 8.0 | 0.00 | 0.00 | 0.00 | 30 | 1010.9 |
| 20260510011104 | 83 | 277 | 4.0 | 8.0 | 0.00 | 0.00 | 0.00 | 30 | 1010.9 |
| 20260510010604 | 83 | 267 | 4.0 | 9.0 | 0.00 | 0.00 | 0.00 | 29 | 1010.8 |
| 20260510010105 | 83 | 293 | 6.0 | 10.0 | 0.00 | 0.00 | 0.00 | 29 | 1010.8 |
| 20260510004604 | 84 | 267 | 5.0 | 9.0 | 0.00 | 0.00 | 0.00 | 28 | 1010.6 |
| 20260510004105 | 85 | 267 | 6.0 | 9.0 | 0.00 | 0.00 | 0.00 | 28 | 1010.6 |
| 20260510003605 | 85 | 274 | 5.0 | 9.0 | 0.00 | 0.00 | 0.00 | 27 | 1010.6 |
| 20260510003106 | 85 | 267 | 7.0 | 9.0 | 0.00 | 0.00 | 0.00 | 27 | 1010.6 |
| 20260510002604 | 85 | 254 | 5.0 | 12.0 | 0.00 | 0.00 | 0.00 | 28 | 1010.6 |
| 20260510002106 | 86 | 282 | 6.0 | 12.0 | 0.00 | 0.00 | 0.00 | 26 | 1010.6 |
| 20260510001604 | 86 | 271 | 6.0 | 12.0 | 0.00 | 0.00 | 0.00 | 27 | 1010.6 |
| 20260510001105 | 87 | 320 | 6.0 | 12.0 | 0.00 | 0.00 | 0.00 | 25 | 1010.6 |
| 20260510000104 | 87 | 290 | 6.0 | 12.0 | 0.00 | 0.00 | 0.00 | 24 | 1010.6 |
| 20260509235604 | 87 | 275 | 4.0 | 10.0 | 0.00 | 0.00 | 0.00 | 24 | 1010.5 |
| 20260509235104 | 87 | 263 | 5.0 | 9.0 | 0.00 | 0.00 | 0.00 | 24 | 1010.5 |
| 20260509234104 | 87 | 265 | 5.0 | 12.0 | 0.00 | 0.00 | 0.00 | 24 | 1010.5 |
| 20260509233604 | 87 | 279 | 6.0 | 9.0 | 0.00 | 0.00 | 0.00 | 25 | 1010.4 |
| 20260509232604 | 88 | 308 | 7.0 | 10.0 | 0.00 | 0.00 | 0.00 | 26 | 1010.5 |
| 20260509231104 | 88 | 283 | 6.0 | 12.0 | 0.00 | 0.00 | 0.00 | 24 | 1010.6 |
| 20260509230604 | 89 | 269 | 7.0 | 12.0 | 0.00 | 0.00 | 0.00 | 24 | 1010.6 |
| 20260509230104 | 89 | 281 | 5.0 | 8.0 | 0.00 | 0.00 | 0.00 | 23 | 1010.5 |
| 20260509225604 | 89 | 292 | 5.0 | 9.0 | 0.00 | 0.00 | 0.00 | 23 | 1010.6 |
| 20260509225104 | 89 | 267 | 4.0 | 9.0 | 0.00 | 0.00 | 0.00 | 23 | 1010.6 |
| 20260509224604 | 89 | 267 | 5.0 | 8.0 | 0.00 | 0.00 | 0.00 | 22 | 1010.6 |
| 20260509224104 | 89 | 240 | 3.0 | 10.0 | 0.00 | 0.00 | 0.00 | 20 | 1010.6 |
| 20260509223104 | 89 | 308 | 6.0 | 10.0 | 0.00 | 0.00 | 0.00 | 20 | 1010.6 |
| 20260509222605 | 89 | 307 | 3.0 | 9.0 | 0.00 | 0.00 | 0.00 | 19 | 1010.7 |
| 20260509221604 | 89 | 5 | 0.0 | 8.0 | 0.00 | 0.00 | 0.00 | 21 | 1010.9 |
| 20260509221104 | 89 | 210 | 3.0 | 8.0 | 0.00 | 0.00 | 0.00 | 18 | 1011.1 |